Flag for Italy Weather past 2 weeks in Varese, Italy

Now
58 °F

Refreshingly cool.


Feels Like: 58 °F
Forecast: 41 / 49 °F
Wind: 1 mph from Northwest

Location: Stabio


UV Index: 0 (Low)

Visibility: N/A


Pressure: 29.77 "Hg

Humidity: 39%

Dew point: 32 °F

Location of VareseLocation

Historic Weather in Varese

°F

Varese temperature yesterday

Maximum temperature yesterday: 64 °F (at 3:00 PM)
Minimum temperature yesterday: 31 °F (at 7:00 AM)
Average temperature yesterday: 47 °F

Past Weeks' High & Low Weather Summary

 TemperatureHumidityPressure
High73 °F (Apr 6, 4:00 PM)96% (Apr 5, 6:00 AM)30.21 "Hg (Apr 5, 6:00 AM)
Low31 °F (Apr 17, 7:00 AM)12% (Apr 9, 2:00 PM)29.70 "Hg (Apr 4, 4:00 PM)
Average56 °F61%29.99 "Hg
* Reported Apr 3 12:00 Noon — Apr 18 12:00 Noon, Varese, Weather by CustomWeather, © 2014

Note: Actual official high and low records may vary slightly from our data, if they occured in-between our weather recording intervals... More about our weather records

Advertising

Historic Weather Conditions — Data for Previous 24 hours

 ConditionsComfort  
Time TempWeatherWind HumidityBarometerVisibility
12:00 PM
Apr 18
57 °FRefreshingly cool.2 mph41%29.79 "HgN/A
11:00 AM54 °FCool.1 mph52%29.83 "HgN/A
10:00 AM50 °FCool.2 mph61%29.85 "HgN/A
9:00 AM45 °FCool.No wind75%29.88 "HgN/A
8:00 AM41 °FQuite cool.1 mph77%29.90 "HgN/A
7:00 AM35 °FChilly.2 mph86%29.92 "HgN/A
6:00 AM35 °FChilly.1 mph84%29.94 "HgN/A
5:00 AM36 °FChilly.2 mph79%29.95 "HgN/A
4:00 AM36 °FChilly.1 mph79%29.96 "HgN/A
3:00 AM37 °FChilly.2 mph77%29.98 "HgN/A
2:00 AM39 °FChilly.2 mph75%30.00 "HgN/A
1:00 AM41 °FQuite cool.1 mph71%30.01 "HgN/A
6:00 PM
Apr 17
62 °FRefreshingly cool.5 mph24%29.94 "HgN/A
4:00 PM63 °FMild.7 mph25%29.97 "HgN/A
3:00 PM64 °FMild.6 mph25%30.00 "HgN/A
2:00 PM62 °FRefreshingly cool.3 mph26%30.03 "HgN/A
1:00 PM61 °FRefreshingly cool.7 mph27%30.07 "HgN/A
Weather by CustomWeather, © 2014

See weather overview